Theta_e
348 347 347 346 346 345 346 346 347 349 349 349 349 350 350 350 350 351 351 351 351 351 352 353 353 351 350 352 353 353 353 353 353 353 353 353 353 352 353 353 354 356
348 348 346 346 346 346 346 346 348 350 349 349 349 349 349 349 350 350 351 351 351 351 352 352 352 352 350 351 351 352 354 354 353 354 354 353 353 353 353 353 354 356
348 348 347 347 346 345 346 347 349 349 348 348 348 349 349 349 350 350 350 351 351 351 352 352 352 352 351 351 351 352 353 353 354 354 355 355 354 354 354 354 354 354
349 348 348 348 347 347 347 349 349 347 347 348 348 349 349 349 350 350 350 351 351 352 352 351 351 352 352 352 352 352 352 353 354 354 355 356 355 355 354 355 354 353
348 348 349 348 349 349 348 349 348 347 347 347 348 349 349 349 349 349 350 350 351 352 352 352 351 352 352 353 352 353 353 353 353 354 356 356 356 355 354 355 355 355
348 348 348 348 348 349 348 348 348 347 347 347 348 348 349 349 350 350 350 349 351 352 352 352 352 352 352 352 352 352 352 352 353 355 356 356 357 356 354 354 355 356
348 348 347 347 347 347 348 348 347 347 348 348 348 348 349 349 350 351 351 351 351 352 353 353 353 352 352 352 352 352 352 353 353 354 356 356 357 356 355 355 356 357
347 347 347 347 347 347 347 347 347 347 347 349 349 349 349 350 351 352 352 352 353 353 353 353 353 352 352 352 352 351 352 353 353 354 355 355 356 357 357 357 357 357
348 347 347 347 346 346 346 347 346 346 347 348 349 349 350 350 351 351 350 350 351 352 352 353 353 353 352 352 352 351 352 353 353 353 355 355 355 356 356 357 358 358
348 348 348 347 347 346 346 346 346 346 346 347 348 348 348 349 349 349 349 350 351 351 351 351 351 352 352 351 351 351 352 352 353 354 354 354 355 355 356 356 357 357
349 349 349 348 348 347 345 344 345 346 348 348 349 349 349 351 351 351 351 351 351 351 350 350 350 351 351 350 350 351 352 352 352 354 354 355 355 355 355 356 358 357
350 350 350 349 349 349 347 346 347 349 350 351 352 352 352 352 352 352 350 349 349 349 348 349 349 350 351 351 351 351 351 352 352 353 354 355 355 355 356 357 357 357
351 350 351 350 350 351 350 350 351 351 352 352 353 353 352 352 352 351 348 347 347 347 348 348 349 350 351 351 351 351 351 351 352 353 354 354 355 355 356 357 356 357
351 351 351 351 351 352 352 352 352 352 353 353 353 353 352 352 351 349 347 347 348 347 347 348 349 350 351 351 351 351 350 351 352 353 354 354 355 356 356 357 357 357
350 352 352 352 352 352 353 353 353 353 353 353 353 353 352 351 349 348 347 347 348 348 348 348 348 349 350 351 352 352 352 353 353 354 355 355 355 356 356 356 355 353
350 352 352 352 352 351 352 353 352 352 352 352 352 351 351 350 348 348 348 348 349 349 349 348 348 348 350 351 353 353 354 355 355 355 354 353 353 352 350 350 350 350
350 350 351 351 350 349 350 351 351 351 351 351 352 351 351 350 349 350 350 349 349 349 349 349 348 348 349 350 352 353 354 355 355 354 352 350 349 349 346 346 346 346
349 348 349 349 348 347 349 350 350 351 352 351 351 351 351 350 350 351 350 349 349 349 349 348 348 349 349 349 351 352 353 355 355 354 353 350 349 348 347 345 345 345
347 346 347 347 348 347 348 350 350 351 352 351 352 351 351 351 351 349 349 349 349 348 348 347 347 347 348 348 350 352 353 354 354 354 352 349 348 346 344 345 345 345
346 346 347 347 349 349 350 351 350 350 352 352 353 352 350 350 349 348 347 347 347 346 346 346 344 344 345 345 347 349 351 352 352 351 349 347 346 345 344 345 344 342
346 347 347 347 349 351 352 349 347 349 352 351 350 350 348 346 347 348 348 348 346 344 343 343 343 343 344 344 345 346 348 349 349 348 347 346 346 345 344 342 338 337
346 346 345 347 351 353 352 349 346 348 349 348 347 348 348 347 347 348 346 344 343 342 342 342 343 343 344 344 345 345 346 346 346 345 342 340 339 338 336 334 330 330
344 344 344 348 351 353 352 349 347 345 345 347 347 348 348 348 347 345 342 340 340 340 340 341 340 341 342 342 344 345 346 346 344 340 335 333 333 331 329 327 325 325
343 344 346 348 350 350 350 349 347 345 344 345 346 345 344 344 343 341 337 336 336 336 336 337 337 338 340 341 343 344 344 343 340 337 335 333 332 329 326 324 324 324
344 345 347 347 347 347 347 347 346 344 343 343 342 341 339 338 337 335 333 332 332 331 332 333 336 338 339 341 342 342 342 340 339 337 335 331 329 328 327 326 327 328
345 345 345 343 342 342 343 343 343 342 341 341 339 337 334 332 331 330 329 327 327 327 327 327 330 333 337 339 341 340 340 340 338 335 332 330 330 330 330 331 332 333
Wind_Speed
18 17 18 20 20 21 19 17 15 14 14 14 15 14 13 13 13 13 13 12 12 11 11 10 10 10 11 11 11 10 9 9 9 8 8 9 8 8 7 7 6 6
18 17 18 19 20 20 19 17 15 14 13 13 13 13 12 12 12 13 13 13 12 12 11 11 10 10 11 12 12 12 11 10 10 9 10 10 9 9 9 8 8 8
19 19 18 18 17 19 19 16 14 13 13 12 12 11 12 12 12 12 12 12 13 13 13 12 11 11 12 12 13 13 12 13 12 11 11 12 11 11 11 10 10 11
22 21 19 17 16 17 17 15 13 12 12 12 12 11 11 12 12 12 13 13 13 14 14 13 13 13 13 13 14 15 15 15 14 13 13 14 13 13 13 12 12 12
24 22 20 18 17 16 16 15 14 12 12 13 13 13 12 12 13 14 14 14 14 14 14 14 14 14 15 15 16 16 17 17 15 15 15 15 14 14 13 12 12 12
25 24 22 21 19 18 17 16 15 13 12 12 14 14 14 13 13 14 15 15 15 15 14 14 15 16 16 17 17 17 17 17 16 15 16 16 15 14 14 13 13 13
27 26 25 23 21 20 20 18 17 15 13 12 13 14 15 15 15 15 15 16 17 17 17 17 17 18 18 18 19 18 18 17 17 17 17 17 16 14 13 13 14 13
29 28 26 25 24 23 23 22 20 17 15 14 14 15 15 16 16 16 16 17 18 19 19 19 19 19 19 19 19 19 19 19 18 18 19 18 17 16 15 14 14 14
28 28 27 25 25 24 25 25 23 21 18 17 17 17 17 18 18 18 18 19 20 21 21 20 20 20 20 21 21 20 20 20 20 20 20 20 19 18 17 16 16 17
27 26 26 25 24 24 25 26 25 24 22 21 20 19 19 19 19 19 19 20 22 23 23 23 22 21 20 21 22 22 22 22 21 21 21 21 21 20 19 19 19 17
25 25 24 24 24 24 24 24 24 23 22 20 20 19 19 18 17 18 19 21 22 22 23 24 24 22 20 21 23 24 24 24 23 23 23 22 22 21 21 20 17 14
20 21 22 22 22 22 22 22 22 21 19 19 19 19 18 17 15 15 17 19 21 21 22 22 23 23 23 23 24 25 25 25 25 25 25 24 24 23 22 20 17 16
18 19 20 20 20 20 20 20 20 19 19 20 20 20 18 16 15 14 14 15 17 19 21 22 22 24 24 24 25 26 25 25 26 27 27 26 25 24 22 20 19 19
19 20 21 21 20 19 18 18 18 18 18 18 19 19 19 17 15 13 11 10 12 15 18 19 20 22 23 24 25 26 26 27 27 27 28 27 26 24 21 19 18 17
17 18 19 20 19 19 18 17 17 17 17 17 18 18 17 16 14 11 10 11 12 13 15 16 18 19 20 21 23 24 25 26 27 28 29 29 26 22 17 16 15 12
16 16 17 16 15 16 17 17 17 17 17 18 18 16 15 15 15 13 13 13 13 12 13 16 16 16 18 19 19 21 22 22 23 24 23 20 16 11 9 10 9 5
17 16 16 16 14 15 16 15 13 13 13 14 14 12 12 13 14 14 13 13 13 13 14 15 16 16 17 18 17 17 17 16 15 16 16 15 13 10 9 9 8 6
14 14 14 14 14 15 15 13 11 10 8 7 7 8 9 10 12 13 13 13 12 12 13 14 16 16 16 16 15 14 12 10 10 12 13 12 12 11 9 8 9 9
13 15 17 16 15 15 15 14 11 10 7 4 4 6 8 9 10 9 8 8 8 8 10 12 13 14 13 13 13 11 9 8 10 11 9 7 7 8 8 9 10 8
15 18 19 18 16 15 15 14 12 10 9 7 5 6 7 8 7 5 3 4 5 5 7 10 11 11 11 11 10 9 8 8 9 9 7 6 6 6 7 8 8 7
19 20 19 17 16 15 15 14 12 11 10 8 7 8 8 8 6 3 2 3 4 4 5 7 9 10 11 11 10 9 9 10 10 9 7 7 6 7 7 8 8 8
19 19 19 18 15 12 12 11 10 9 8 7 7 8 7 6 4 2 2 3 3 3 3 4 6 8 10 11 10 9 8 7 6 3 4 10 13 12 10 9 9 10
18 18 17 17 14 11 10 10 9 10 10 10 9 8 6 4 4 4 4 4 4 2 0 2 5 7 9 10 8 5 2 1 2 7 13 17 20 19 15 13 13 13
18 16 13 13 12 11 11 10 10 12 14 13 12 11 10 9 8 8 7 7 6 6 6 6 7 8 8 8 6 3 4 6 9 16 19 18 19 21 18 16 16 15
16 13 11 11 11 12 12 12 12 13 14 14 14 16 16 14 12 12 12 12 11 12 11 10 10 10 10 12 12 10 10 12 16 20 21 19 20 21 20 18 18 17
14 13 13 13 14 15 15 15 14 15 16 17 18 19 18 17 16 15 16 15 14 15 15 15 14 14 12 11 12 12 13 14 16 18 20 20 19 19 19 20 20 20
Wind_Direction
235 237 237 237 236 236 236 236 236 240 247 251 252 251 251 251 249 247 250 255 259 264 265 263 260 255 250 248 252 260 268 272 273 275 279 282 282 278 282 290 290 293
232 233 238 241 237 233 233 235 238 242 250 255 255 254 254 255 255 254 257 262 264 268 270 269 266 261 255 252 252 256 264 270 271 272 275 279 281 277 276 279 278 281
228 228 232 236 232 228 228 232 238 245 252 254 251 248 249 252 255 259 265 270 272 274 275 274 270 264 261 259 258 259 262 266 269 272 274 277 279 276 273 274 274 275
223 223 225 226 225 225 227 231 239 248 253 249 244 246 249 251 256 263 270 275 278 279 276 275 272 268 265 263 263 263 263 265 269 271 273 275 275 272 272 274 276 276
223 222 222 222 223 224 228 234 242 251 257 252 248 250 252 255 261 266 272 275 279 282 278 275 272 269 268 268 268 268 267 268 269 270 271 273 274 270 269 271 276 281
225 225 225 226 228 229 233 238 242 250 258 259 255 253 254 259 267 270 270 271 275 280 281 277 273 271 270 271 272 272 269 267 266 267 268 271 274 272 268 270 274 279
227 228 229 231 233 234 237 240 242 245 251 259 259 255 256 262 269 271 269 270 274 279 282 280 278 277 277 276 274 272 267 263 263 264 265 268 273 273 269 268 271 275
227 230 232 234 237 239 239 239 241 242 245 253 256 256 258 262 268 272 273 274 277 280 281 281 279 279 279 279 275 270 266 263 262 262 265 268 271 273 272 269 271 274
226 230 232 236 239 240 239 239 240 241 243 247 252 256 259 263 268 273 277 279 280 281 281 281 281 280 281 281 278 271 266 266 266 265 266 268 270 271 271 270 272 273
227 229 232 235 238 240 239 239 241 244 245 247 250 255 260 266 273 277 282 284 283 282 281 279 280 280 280 282 280 275 269 267 269 268 268 269 270 270 271 273 273 274
227 229 231 235 239 240 240 240 242 247 250 251 253 256 260 269 277 282 285 287 285 283 280 279 279 277 273 272 272 272 270 268 269 269 270 270 271 272 273 273 271 272
228 230 233 237 240 243 243 242 244 246 250 253 256 256 257 259 266 275 284 288 286 282 278 277 276 275 272 269 268 271 271 270 269 269 270 271 272 273 273 271 269 270
225 228 232 236 239 241 242 243 244 246 247 249 253 256 257 256 260 271 281 287 288 284 279 276 275 274 272 270 270 271 271 271 270 269 269 270 271 272 270 267 266 266
223 226 230 235 236 237 239 240 242 245 247 249 252 257 261 262 265 269 273 287 298 295 287 280 277 275 273 272 271 270 271 271 269 268 268 269 269 268 265 261 260 262
226 225 227 233 236 236 236 241 245 249 252 254 254 256 259 258 257 255 258 272 288 298 297 289 280 274 271 268 267 268 269 270 270 269 267 267 265 260 256 256 256 261
238 231 224 226 235 242 241 241 247 251 252 251 249 249 249 246 243 244 250 258 266 280 292 292 286 279 273 267 264 264 266 268 273 274 273 275 275 266 262 265 258 245
240 238 232 227 234 250 250 242 240 240 240 241 239 238 238 235 236 241 247 255 265 273 282 287 286 282 278 273 268 267 268 269 273 275 275 277 276 267 262 264 261 247
239 242 236 224 221 237 248 245 232 220 215 224 233 236 239 239 243 249 254 261 267 270 275 280 279 277 276 277 276 275 275 275 273 270 266 258 251 245 239 245 258 252
234 238 234 221 208 217 235 237 222 203 192 202 232 241 243 245 247 250 253 258 262 268 277 279 276 277 281 282 281 277 272 270 270 270 264 249 241 237 232 239 247 237
214 223 228 225 212 206 213 215 206 195 190 188 205 229 239 243 244 238 241 266 277 277 274 273 276 286 295 296 294 287 272 261 266 270 263 254 253 240 228 228 218 190
208 213 216 217 211 201 197 196 196 199 195 182 188 214 223 220 217 217 238 270 275 263 254 269 285 298 304 306 308 300 279 266 269 271 248 218 209 203 193 184 168 149
208 206 201 198 199 196 191 186 182 185 191 189 190 202 208 196 180 174 181 196 218 235 250 279 299 307 309 313 316 307 287 276 281 278 176 148 138 136 136 126 114 104
208 204 192 180 174 175 177 171 153 147 161 175 173 169 175 180 179 172 156 151 160 169 320 336 346 345 338 333 327 310 282 253 100 96 101 107 107 104 95 84 84 87
198 199 185 170 166 168 168 163 151 144 149 156 154 149 149 155 161 153 133 118 109 87 62 45 42 39 31 28 31 67 113 116 113 106 102 97 93 89 83 81 86 89
176 175 168 164 164 163 158 156 151 143 138 138 139 139 138 140 141 132 114 102 94 83 73 67 70 71 67 68 77 95 112 118 116 110 106 99 90 87 88 88 91 92
150 146 144 142 140 139 139 139 138 134 131 130 130 130 129 128 124 116 106 99 94 90 83 76 74 76 77 80 90 102 112 117 114 109 108 105 99 98 99 97 96 95